Location: McFarlands Corners
(41.4117°N, 81.3382°W)
Time: 08:33:13
(UTC+00:00)

Vanguard 1 Rocket - Pass Details

Date: 21 February 2026
Orbit: 653 x 4214 km, 34.3° (Epoch: 12 March)

Event Time Altitude Azimuth Distance (km) Brightness Sun altitude
Rises 19:59:59 0° 261° (W) 4,423 11.6 28.9°
Reaches altitude 10° 20:02:22 10° 258° (WSW) 3,752 11.5 28.6°
Maximum altitude 20:12:36 65° 179° (S) 2,581 10.5 27.4°
Drops below altitude 10° 20:32:39 10° 104° (ESE) 6,840 11.6 24.7°
Sets 20:38:52 0° 102° (ESE) 8,192 11.9 23.8°
